Time,TemperatureF,DewpointF,PressureIn,WindDirection,WindDirectionDegrees,WindSpeedMPH,WindSpeedGustMPH,Humidity,HourlyPrecipIn,Conditions,Clouds,dailyrainin,SoftwareType,DateUTC
2013-01-15 00:00:00,-3.5,-17.8,29.62,North,0,0.0,0.0,49,0.00,,---,0.00,VWS V14.01,2013-01-15 05:00:00,
2013-01-15 00:01:00,-3.5,-17.8,29.62,North,0,0.0,0.0,49,0.00,,---,0.00,VWS V14.01,2013-01-15 05:01:00,
2013-01-15 00:04:00,-3.3,-17.7,29.62,North,0,0.0,0.0,49,0.00,,---,0.00,VWS V14.01,2013-01-15 05:04:00,
2013-01-15 00:10:00,-2.6,-17.0,29.62,North,0,0.0,0.0,49,0.00,,---,0.00,VWS V14.01,2013-01-15 05:10:00,
2013-01-15 00:13:00,-2.2,-16.7,29.62,North,0,0.0,0.0,49,0.00,,---,0.00,VWS V14.01,2013-01-15 05:13:00,
2013-01-15 00:18:00,-1.8,-16.3,29.62,North,0,0.0,0.0,49,0.00,,---,0.00,VWS V14.01,2013-01-15 05:18:00,
2013-01-15 00:23:00,-1.5,-16.0,29.62,North,0,0.0,0.0,49,0.00,,---,0.00,VWS V14.01,2013-01-15 05:23:00,
2013-01-15 00:28:00,-0.8,-15.3,29.62,North,0,0.0,0.0,49,0.00,,---,0.00,VWS V14.01,2013-01-15 05:28:00,
2013-01-15 00:33:00,-0.2,-14.8,29.62,North,0,0.0,0.0,49,0.00,,---,0.00,VWS V14.01,2013-01-15 05:33:00,
2013-01-15 00:38:00,0.1,-14.5,29.62,North,0,0.0,0.0,49,0.00,,---,0.00,VWS V14.01,2013-01-15 05:38:00,
2013-01-15 00:44:00,0.7,-14.0,29.62,North,0,0.0,0.0,49,0.00,,---,0.00,VWS V14.01,2013-01-15 05:44:00,
2013-01-15 00:49:00,1.0,-13.6,29.62,North,0,0.0,0.0,49,0.00,,---,0.00,VWS V14.01,2013-01-15 05:49:00,
2013-01-15 00:54:00,1.6,-13.1,29.59,North,0,0.0,0.0,49,0.00,,---,0.00,VWS V14.01,2013-01-15 05:54:00,
2013-01-15 00:59:00,1.9,-12.8,29.59,North,0,0.0,0.0,49,0.00,,---,0.00,VWS V14.01,2013-01-15 05:59:00,
2013-01-15 01:04:00,2.1,-12.6,29.59,North,0,0.0,0.0,49,0.00,,---,0.00,VWS V14.01,2013-01-15 06:04:00,
2013-01-15 01:09:00,2.5,-12.3,29.59,North,0,0.0,0.0,49,0.00,,---,0.00,VWS V14.01,2013-01-15 06:09:00,
2013-01-15 01:14:00,2.8,-12.0,29.59,North,0,0.0,0.0,49,0.00,,---,0.00,VWS V14.01,2013-01-15 06:14:00,
2013-01-15 01:19:00,3.2,-11.6,29.59,North,0,0.0,0.0,49,0.00,,---,0.00,VWS V14.01,2013-01-15 06:19:00,
2013-01-15 01:24:00,3.4,-11.5,29.62,North,0,0.0,0.0,49,0.00,,---,0.00,VWS V14.01,2013-01-15 06:24:00,
2013-01-15 01:29:00,3.7,-11.1,29.62,North,0,0.0,0.0,49,0.00,,---,0.00,VWS V14.01,2013-01-15 06:29:00,
2013-01-15 01:34:00,4.1,-10.8,29.62,North,0,0.0,0.0,49,0.00,,---,0.00,VWS V14.01,2013-01-15 06:34:00,
2013-01-15 01:39:00,4.3,-10.6,29.62,North,0,0.0,0.0,49,0.04,,---,0.04,VWS V14.01,2013-01-15 06:39:00,
2013-01-15 01:44:00,4.6,-10.3,29.62,North,0,0.0,0.0,49,0.04,,---,0.04,VWS V14.01,2013-01-15 06:44:00,
2013-01-15 01:49:00,5.0,-10.0,29.62,North,0,0.0,0.0,49,0.04,,---,0.04,VWS V14.01,2013-01-15 06:49:00,
2013-01-15 01:54:00,5.2,-9.8,29.59,North,0,0.0,0.0,49,0.04,,---,0.04,VWS V14.01,2013-01-15 06:54:00,
2013-01-15 01:59:00,5.5,-9.5,29.59,North,0,0.0,0.0,49,0.04,,---,0.04,VWS V14.01,2013-01-15 06:59:00,
2013-01-15 02:04:00,5.5,-9.5,29.59,North,0,0.0,0.0,49,0.04,,---,0.04,VWS V14.01,2013-01-15 07:04:00,
2013-01-15 02:09:00,5.9,-9.1,29.62,North,0,0.0,0.0,49,0.04,,---,0.04,VWS V14.01,2013-01-15 07:09:00,
2013-01-15 02:14:00,6.1,-9.0,29.62,North,0,0.0,0.0,49,0.04,,---,0.04,VWS V14.01,2013-01-15 07:14:00,
2013-01-15 02:19:00,6.3,-8.8,29.62,North,0,0.0,0.0,49,0.04,,---,0.04,VWS V14.01,2013-01-15 07:19:00,
2013-01-15 02:25:00,6.4,-8.6,29.62,North,0,0.0,0.0,49,0.04,,---,0.04,VWS V14.01,2013-01-15 07:25:00,
2013-01-15 02:30:00,6.8,-8.3,29.62,North,0,0.0,0.0,49,0.04,,---,0.04,VWS V14.01,2013-01-15 07:30:00,
2013-01-15 02:36:00,6.8,-8.3,29.62,North,0,0.0,0.0,49,0.04,,---,0.04,VWS V14.01,2013-01-15 07:36:00,
2013-01-15 02:41:00,7.2,-8.0,29.59,North,0,0.0,0.0,49,0.00,,---,0.04,VWS V14.01,2013-01-15 07:41:00,
2013-01-15 02:46:00,7.3,-7.8,29.59,North,0,0.0,0.0,49,0.00,,---,0.04,VWS V14.01,2013-01-15 07:46:00,
2013-01-15 02:51:00,7.5,-7.6,29.59,North,0,0.0,0.0,49,0.00,,---,0.04,VWS V14.01,2013-01-15 07:51:00,
2013-01-15 02:56:00,7.7,-7.5,29.59,North,0,0.0,0.0,49,0.00,,---,0.04,VWS V14.01,2013-01-15 07:56:00,
2013-01-15 03:01:00,7.9,-7.3,29.59,North,0,0.0,0.0,49,0.00,,---,0.04,VWS V14.01,2013-01-15 08:01:00,
2013-01-15 03:06:00,7.9,-7.3,29.59,North,0,0.0,0.0,49,0.00,,---,0.04,VWS V14.01,2013-01-15 08:06:00,
2013-01-15 03:12:00,8.2,-7.0,29.59,North,0,0.0,0.0,49,0.00,,---,0.04,VWS V14.01,2013-01-15 08:12:00,
2013-01-15 03:17:00,8.4,-6.8,29.59,North,0,0.0,0.0,49,0.00,,---,0.04,VWS V14.01,2013-01-15 08:17:00,
2013-01-15 03:23:00,8.6,-6.6,29.56,North,0,0.0,0.0,49,0.00,,---,0.04,VWS V14.01,2013-01-15 08:23:00,
2013-01-15 03:28:00,8.8,-6.5,29.56,North,0,0.0,0.0,49,0.00,,---,0.04,VWS V14.01,2013-01-15 08:28:00,
2013-01-15 03:34:00,9.0,-6.3,29.56,North,0,0.0,0.0,49,0.00,,---,0.04,VWS V14.01,2013-01-15 08:34:00,
2013-01-15 03:39:00,9.1,-6.1,29.59,North,0,0.0,0.0,49,0.00,,---,0.04,VWS V14.01,2013-01-15 08:39:00,
2013-01-15 03:44:00,9.3,-6.0,29.59,North,0,0.0,0.0,49,0.00,,---,0.04,VWS V14.01,2013-01-15 08:44:00,
2013-01-15 03:49:00,9.1,-6.1,29.59,North,0,0.0,0.0,49,0.00,,---,0.04,VWS V14.01,2013-01-15 08:49:00,
2013-01-15 03:54:00,8.1,-7.1,29.56,North,0,0.0,0.0,49,0.00,,---,0.04,VWS V14.01,2013-01-15 08:54:00,
2013-01-15 03:59:00,7.3,-7.8,29.56,North,0,0.0,0.0,49,0.00,,---,0.04,VWS V14.01,2013-01-15 08:59:00,
2013-01-15 04:04:00,6.3,-8.8,29.56,North,0,0.0,0.0,49,0.00,,---,0.04,VWS V14.01,2013-01-15 09:04:00,
2013-01-15 04:10:00,5.4,-9.6,29.59,North,0,0.0,0.0,49,0.00,,---,0.04,VWS V14.01,2013-01-15 09:10:00,
2013-01-15 04:16:00,4.5,-10.5,29.59,North,0,0.0,0.0,49,0.00,,---,0.04,VWS V14.01,2013-01-15 09:16:00,
2013-01-15 04:21:00,3.7,-11.1,29.59,North,0,0.0,0.0,49,0.00,,---,0.04,VWS V14.01,2013-01-15 09:21:00,
2013-01-15 04:26:00,3.0,-11.8,29.59,North,0,0.0,0.0,49,0.00,,---,0.04,VWS V14.01,2013-01-15 09:26:00,
2013-01-15 04:31:00,2.5,-12.3,29.59,North,0,0.0,0.0,49,0.00,,---,0.04,VWS V14.01,2013-01-15 09:31:00,
2013-01-15 04:36:00,1.9,-12.8,29.59,North,0,0.0,0.0,49,0.00,,---,0.04,VWS V14.01,2013-01-15 09:36:00,
2013-01-15 04:41:00,1.2,-13.5,29.56,North,0,0.0,0.0,49,0.00,,---,0.04,VWS V14.01,2013-01-15 09:41:00,
2013-01-15 04:46:00,0.7,-14.0,29.56,North,0,0.0,0.0,49,0.00,,---,0.04,VWS V14.01,2013-01-15 09:46:00,
2013-01-15 04:51:00,0.3,-14.3,29.56,North,0,0.0,0.0,49,0.00,,---,0.04,VWS V14.01,2013-01-15 09:51:00,
2013-01-15 04:56:00,-0.2,-14.8,29.56,North,0,0.0,0.0,49,0.00,,---,0.04,VWS V14.01,2013-01-15 09:56:00,
2013-01-15 05:02:00,-0.6,-15.1,29.56,North,0,0.0,0.0,49,0.00,,---,0.04,VWS V14.01,2013-01-15 10:02:00,
2013-01-15 05:07:00,-0.9,-15.5,29.59,North,0,0.0,0.0,49,0.00,,---,0.04,VWS V14.01,2013-01-15 10:07:00,
2013-01-15 05:12:00,-1.3,-15.8,29.59,North,0,0.0,0.0,49,0.00,,---,0.04,VWS V14.01,2013-01-15 10:12:00,
2013-01-15 05:17:00,-1.5,-16.0,29.59,North,0,0.0,0.0,49,0.00,,---,0.04,VWS V14.01,2013-01-15 10:17:00,
2013-01-15 05:22:00,-1.8,-16.3,29.59,North,0,0.0,0.0,49,0.04,,---,0.08,VWS V14.01,2013-01-15 10:22:00,
2013-01-15 05:27:00,-2.2,-16.7,29.59,North,0,0.0,0.0,49,0.04,,---,0.08,VWS V14.01,2013-01-15 10:27:00,
2013-01-15 05:33:00,-2.6,-17.0,29.59,North,0,0.0,0.0,49,0.04,,---,0.08,VWS V14.01,2013-01-15 10:33:00,
2013-01-15 05:38:00,-2.7,-17.2,29.59,North,0,0.0,0.0,49,0.04,,---,0.08,VWS V14.01,2013-01-15 10:38:00,
2013-01-15 05:43:00,-3.1,-17.5,29.59,North,0,0.0,0.0,49,0.04,,---,0.08,VWS V14.01,2013-01-15 10:43:00,
2013-01-15 05:48:00,-3.5,-17.8,29.59,North,0,0.0,0.0,49,0.04,,---,0.08,VWS V14.01,2013-01-15 10:48:00,
2013-01-15 05:53:00,-3.6,-18.0,29.62,North,0,0.0,0.0,49,0.04,,---,0.08,VWS V14.01,2013-01-15 10:53:00,
2013-01-15 05:58:00,-3.8,-18.2,29.62,North,0,0.0,0.0,49,0.04,,---,0.08,VWS V14.01,2013-01-15 10:58:00,
2013-01-15 06:03:00,-4.2,-18.5,29.62,North,0,0.0,0.0,49,0.04,,---,0.08,VWS V14.01,2013-01-15 11:03:00,
2013-01-15 06:08:00,-4.4,-18.7,29.62,North,0,0.0,0.0,49,0.04,,---,0.08,VWS V14.01,2013-01-15 11:08:00,
2013-01-15 06:13:00,-4.5,-18.8,29.62,North,0,0.0,0.0,49,0.04,,---,0.08,VWS V14.01,2013-01-15 11:13:00,
2013-01-15 06:18:00,-4.7,-19.0,29.62,North,0,0.0,0.0,49,0.04,,---,0.08,VWS V14.01,2013-01-15 11:18:00,
2013-01-15 06:23:00,-5.1,-19.3,29.62,North,0,0.0,0.0,49,0.00,,---,0.08,VWS V14.01,2013-01-15 11:23:00,
2013-01-15 06:28:00,-5.1,-19.3,29.62,North,0,0.0,0.0,49,0.00,,---,0.08,VWS V14.01,2013-01-15 11:28:00,
2013-01-15 06:33:00,-5.3,-19.5,29.62,North,0,0.0,0.0,49,0.00,,---,0.08,VWS V14.01,2013-01-15 11:33:00,
2013-01-15 06:38:00,-5.1,-19.3,29.62,North,0,0.0,0.0,49,0.00,,---,0.08,VWS V14.01,2013-01-15 11:38:00,
2013-01-15 06:43:00,-4.7,-19.0,29.62,North,0,0.0,0.0,49,0.00,,---,0.08,VWS V14.01,2013-01-15 11:43:00,
2013-01-15 06:48:00,-4.2,-18.5,29.62,North,0,0.0,0.0,49,0.00,,---,0.08,VWS V14.01,2013-01-15 11:48:00,
2013-01-15 06:53:00,-3.8,-18.2,29.62,North,0,0.0,0.0,49,0.00,,---,0.08,VWS V14.01,2013-01-15 11:53:00,
2013-01-15 06:58:00,-3.3,-17.7,29.62,North,0,0.0,0.0,49,0.00,,---,0.08,VWS V14.01,2013-01-15 11:58:00,
2013-01-15 07:03:00,-2.9,-17.3,29.62,North,0,0.0,0.0,49,0.00,,---,0.08,VWS V14.01,2013-01-15 12:03:00,
2013-01-15 07:08:00,-2.2,-16.7,29.62,North,0,0.0,0.0,49,0.00,,---,0.08,VWS V14.01,2013-01-15 12:08:00,
2013-01-15 07:13:00,-1.8,-16.3,29.62,North,0,0.0,0.0,49,0.00,,---,0.08,VWS V14.01,2013-01-15 12:13:00,
2013-01-15 07:18:00,-1.5,-16.0,29.62,North,0,0.0,0.0,49,0.00,,---,0.08,VWS V14.01,2013-01-15 12:18:00,
2013-01-15 07:23:00,-1.1,-15.6,29.65,North,0,0.0,0.0,49,0.00,,---,0.08,VWS V14.01,2013-01-15 12:23:00,
2013-01-15 07:28:00,-0.8,-15.3,29.65,North,0,0.0,0.0,49,0.00,,---,0.08,VWS V14.01,2013-01-15 12:28:00,
2013-01-15 07:33:00,-0.4,-15.0,29.65,North,0,0.0,0.0,49,0.00,,---,0.08,VWS V14.01,2013-01-15 12:33:00,
2013-01-15 07:38:00,0.0,-14.6,29.65,North,0,0.0,0.0,49,0.00,,---,0.08,VWS V14.01,2013-01-15 12:38:00,
2013-01-15 07:43:00,0.3,-14.3,29.65,North,0,0.0,0.0,49,0.00,,---,0.08,VWS V14.01,2013-01-15 12:43:00,
2013-01-15 07:48:00,0.7,-14.0,29.65,North,0,0.0,0.0,49,0.00,,---,0.08,VWS V14.01,2013-01-15 12:48:00,
2013-01-15 07:53:00,0.9,-13.8,29.65,North,0,0.0,0.0,49,0.00,,---,0.08,VWS V14.01,2013-01-15 12:53:00,
2013-01-15 07:58:00,1.2,-13.5,29.65,North,0,0.0,0.0,49,0.00,,---,0.08,VWS V14.01,2013-01-15 12:58:00,
2013-01-15 08:03:00,1.4,-13.3,29.65,North,0,0.0,0.0,49,0.00,,---,0.08,VWS V14.01,2013-01-15 13:03:00,
2013-01-15 08:08:00,1.8,-13.0,29.68,North,0,0.0,0.0,49,0.00,,---,0.08,VWS V14.01,2013-01-15 13:08:00,
2013-01-15 08:13:00,1.9,-12.8,29.68,North,0,0.0,0.0,49,0.00,,---,0.08,VWS V14.01,2013-01-15 13:13:00,
2013-01-15 08:18:00,2.5,-12.3,29.68,North,0,0.0,0.0,49,0.00,,---,0.08,VWS V14.01,2013-01-15 13:18:00,
2013-01-15 08:23:00,2.5,-12.3,29.68,North,0,0.0,0.0,49,0.00,,---,0.08,VWS V14.01,2013-01-15 13:23:00,
2013-01-15 08:28:00,2.8,-12.0,29.68,North,0,0.0,0.0,49,0.00,,---,0.08,VWS V14.01,2013-01-15 13:28:00,
2013-01-15 08:33:00,3.2,-11.6,29.68,North,0,0.0,0.0,49,0.00,,---,0.08,VWS V14.01,2013-01-15 13:33:00,
2013-01-15 08:38:00,3.4,-11.5,29.68,North,0,0.0,0.0,49,0.00,,---,0.08,VWS V14.01,2013-01-15 13:38:00,
2013-01-15 08:43:00,3.7,-11.1,29.68,North,0,0.0,0.0,49,0.00,,---,0.08,VWS V14.01,2013-01-15 13:43:00,
2013-01-15 08:49:00,3.7,-11.1,29.68,North,0,0.0,0.0,49,0.00,,---,0.08,VWS V14.01,2013-01-15 13:49:00,
2013-01-15 08:54:00,4.1,-10.8,29.68,North,0,0.0,0.0,49,0.00,,---,0.08,VWS V14.01,2013-01-15 13:54:00,
2013-01-15 08:59:00,4.3,-10.6,29.68,North,0,0.0,0.0,49,0.00,,---,0.08,VWS V14.01,2013-01-15 13:59:00,
2013-01-15 09:04:00,4.5,-10.5,29.68,North,0,0.0,0.0,49,0.00,,---,0.08,VWS V14.01,2013-01-15 14:04:00,
2013-01-15 09:09:00,4.6,-10.3,29.68,North,0,0.0,0.0,49,0.00,,---,0.08,VWS V14.01,2013-01-15 14:09:00,
2013-01-15 09:14:00,5.0,-10.0,29.68,North,0,0.0,0.0,49,0.00,,---,0.08,VWS V14.01,2013-01-15 14:14:00,
2013-01-15 09:19:00,5.2,-9.8,29.68,North,0,0.0,0.0,49,0.00,,---,0.08,VWS V14.01,2013-01-15 14:19:00,
2013-01-15 09:24:00,5.4,-9.6,29.68,North,0,0.0,0.0,49,0.00,,---,0.08,VWS V14.01,2013-01-15 14:24:00,
2013-01-15 09:29:00,5.5,-9.5,29.68,North,0,0.0,0.0,49,0.00,,---,0.08,VWS V14.01,2013-01-15 14:29:00,
2013-01-15 09:34:00,5.7,-9.3,29.68,North,0,0.0,0.0,49,0.00,,---,0.08,VWS V14.01,2013-01-15 14:34:00,
2013-01-15 09:39:00,5.9,-9.1,29.68,North,0,0.0,0.0,49,0.00,,---,0.08,VWS V14.01,2013-01-15 14:39:00,
2013-01-15 09:45:00,6.1,-9.0,29.68,North,0,0.0,0.0,49,0.00,,---,0.08,VWS V14.01,2013-01-15 14:45:00,
2013-01-15 09:50:00,6.1,-9.0,29.68,North,0,0.0,0.0,49,0.00,,---,0.08,VWS V14.01,2013-01-15 14:50:00,
2013-01-15 09:56:00,6.3,-8.8,29.68,North,0,0.0,0.0,49,0.00,,---,0.08,VWS V14.01,2013-01-15 14:56:00,
2013-01-15 10:01:00,6.4,-8.6,29.68,North,0,0.0,0.0,49,0.00,,---,0.08,VWS V14.01,2013-01-15 15:01:00,
2013-01-15 10:06:00,6.8,-8.3,29.68,North,0,0.0,0.0,49,0.00,,---,0.08,VWS V14.01,2013-01-15 15:06:00,
2013-01-15 10:12:00,6.8,-8.3,29.68,North,0,0.0,0.0,49,0.00,,---,0.08,VWS V14.01,2013-01-15 15:12:00,
2013-01-15 10:17:00,7.0,-8.1,29.68,North,0,0.0,0.0,49,0.00,,---,0.08,VWS V14.01,2013-01-15 15:17:00,
2013-01-15 10:22:00,7.2,-8.0,29.68,North,0,0.0,0.0,49,0.00,,---,0.08,VWS V14.01,2013-01-15 15:22:00,
2013-01-15 10:27:00,7.3,-7.8,29.68,North,0,0.0,0.0,49,0.00,,---,0.08,VWS V14.01,2013-01-15 15:27:00,
2013-01-15 10:32:00,7.5,-7.6,29.68,North,0,0.0,0.0,49,0.00,,---,0.08,VWS V14.01,2013-01-15 15:32:00,
2013-01-15 10:37:00,7.5,-7.6,29.68,North,0,0.0,0.0,49,0.00,,---,0.08,VWS V14.01,2013-01-15 15:37:00,
2013-01-15 10:42:00,7.7,-7.5,29.68,North,0,0.0,0.0,49,0.00,,---,0.08,VWS V14.01,2013-01-15 15:42:00,
2013-01-15 10:47:00,7.9,-7.3,29.68,North,0,0.0,0.0,49,0.00,,---,0.08,VWS V14.01,2013-01-15 15:47:00,
2013-01-15 10:52:00,8.1,-7.1,29.68,North,0,0.0,0.0,49,0.00,,---,0.08,VWS V14.01,2013-01-15 15:52:00,
2013-01-15 10:57:00,8.1,-7.1,29.68,North,0,0.0,0.0,49,0.00,,---,0.08,VWS V14.01,2013-01-15 15:57:00,
2013-01-15 11:02:00,8.2,-7.0,29.68,North,0,0.0,0.0,49,0.00,,---,0.08,VWS V14.01,2013-01-15 16:02:00,
2013-01-15 11:07:00,8.4,-6.8,29.65,North,0,0.0,0.0,49,0.00,,---,0.08,VWS V14.01,2013-01-15 16:07:00,
2013-01-15 11:13:00,8.6,-6.6,29.65,North,0,0.0,0.0,49,0.00,,---,0.08,VWS V14.01,2013-01-15 16:13:00,
2013-01-15 11:18:00,8.6,-6.6,29.65,North,0,0.0,0.0,49,0.00,,---,0.08,VWS V14.01,2013-01-15 16:18:00,
2013-01-15 11:24:00,9.0,-6.3,29.68,North,0,0.0,0.0,49,0.00,,---,0.08,VWS V14.01,2013-01-15 16:24:00,
2013-01-15 11:29:00,9.1,-6.1,29.68,North,0,0.0,0.0,49,0.00,,---,0.08,VWS V14.01,2013-01-15 16:29:00,
2013-01-15 11:34:00,9.1,-6.1,29.68,North,0,0.0,0.0,49,0.00,,---,0.08,VWS V14.01,2013-01-15 16:34:00,
2013-01-15 11:39:00,9.3,-6.0,29.65,North,0,0.0,0.0,49,0.00,,---,0.08,VWS V14.01,2013-01-15 16:39:00,
2013-01-15 11:44:00,8.6,-6.6,29.65,North,0,0.0,0.0,49,0.00,,---,0.08,VWS V14.01,2013-01-15 16:44:00,
2013-01-15 11:49:00,7.9,-7.3,29.65,North,0,0.0,0.0,49,0.00,,---,0.08,VWS V14.01,2013-01-15 16:49:00,
2013-01-15 11:55:00,6.4,-8.6,29.65,North,0,0.0,0.0,49,0.00,,---,0.08,VWS V14.01,2013-01-15 16:55:00,
2013-01-15 12:00:00,5.5,-9.5,29.65,North,0,0.0,0.0,49,0.00,,---,0.08,VWS V14.01,2013-01-15 17:00:00,
2013-01-15 12:05:00,4.8,-10.1,29.65,North,0,0.0,0.0,49,0.00,,---,0.08,VWS V14.01,2013-01-15 17:05:00,
2013-01-15 12:11:00,4.1,-10.8,29.65,North,0,0.0,0.0,49,0.00,,---,0.08,VWS V14.01,2013-01-15 17:11:00,
2013-01-15 12:22:00,2.3,-12.5,29.62,North,0,0.0,0.0,49,0.00,,---,0.08,VWS V14.01,2013-01-15 17:22:00,
2013-01-15 12:27:00,1.6,-13.1,29.62,North,0,0.0,0.0,49,0.00,,---,0.08,VWS V14.01,2013-01-15 17:27:00,
2013-01-15 12:32:00,1.2,-13.5,29.62,North,0,0.0,0.0,49,0.00,,---,0.08,VWS V14.01,2013-01-15 17:32:00,
2013-01-15 12:37:00,0.7,-14.0,29.62,North,0,0.0,0.0,49,0.00,,---,0.08,VWS V14.01,2013-01-15 17:37:00,
2013-01-15 12:42:00,0.1,-14.5,29.62,North,0,0.0,0.0,49,0.00,,---,0.08,VWS V14.01,2013-01-15 17:42:00,
2013-01-15 12:47:00,-0.4,-15.0,29.62,North,0,0.0,0.0,49,0.00,,---,0.08,VWS V14.01,2013-01-15 17:47:00,
2013-01-15 12:52:00,-0.9,-15.5,29.62,North,0,0.0,0.0,49,0.00,,---,0.08,VWS V14.01,2013-01-15 17:52:00,
2013-01-15 12:57:00,-1.1,-15.6,29.62,North,0,0.0,0.0,49,0.00,,---,0.08,VWS V14.01,2013-01-15 17:57:00,
2013-01-15 13:02:00,-1.5,-16.0,29.62,North,0,0.0,0.0,49,0.00,,---,0.08,VWS V14.01,2013-01-15 18:02:00,
2013-01-15 13:07:00,-1.8,-16.3,29.62,North,0,0.0,0.0,49,0.00,,---,0.08,VWS V14.01,2013-01-15 18:07:00,
2013-01-15 13:12:00,-2.2,-16.7,29.62,North,0,0.0,0.0,49,0.00,,---,0.08,VWS V14.01,2013-01-15 18:12:00,
2013-01-15 13:17:00,-2.6,-17.0,29.62,North,0,0.0,0.0,49,0.04,,---,0.12,VWS V14.01,2013-01-15 18:17:00,
2013-01-15 13:22:00,-2.7,-17.2,29.59,North,0,0.0,0.0,49,0.04,,---,0.12,VWS V14.01,2013-01-15 18:22:00,
2013-01-15 13:27:00,-3.1,-17.5,29.59,North,0,0.0,0.0,49,0.04,,---,0.12,VWS V14.01,2013-01-15 18:27:00,
2013-01-15 13:32:00,-3.3,-17.7,29.59,North,0,0.0,0.0,49,0.04,,---,0.12,VWS V14.01,2013-01-15 18:32:00,
2013-01-15 13:37:00,-0.2,-14.8,29.59,North,0,0.0,0.0,49,0.04,,---,0.12,VWS V14.01,2013-01-15 18:37:00,
2013-01-15 13:42:00,5.5,-9.5,29.59,North,0,0.0,0.0,49,0.04,,---,0.12,VWS V14.01,2013-01-15 18:42:00,
2013-01-15 13:47:00,6.3,-8.8,29.59,North,0,0.0,0.0,49,0.04,,---,0.12,VWS V14.01,2013-01-15 18:47:00,
2013-01-15 13:52:00,5.5,-9.5,29.59,North,0,0.0,0.0,49,0.04,,---,0.12,VWS V14.01,2013-01-15 18:52:00,
2013-01-15 13:57:00,4.8,-10.1,29.59,North,0,0.0,0.0,49,0.04,,---,0.12,VWS V14.01,2013-01-15 18:57:00,
2013-01-15 14:02:00,3.7,-11.1,29.59,North,0,0.0,0.0,49,0.04,,---,0.12,VWS V14.01,2013-01-15 19:02:00,
2013-01-15 14:07:00,2.7,-12.1,29.59,North,0,0.0,0.0,49,0.04,,---,0.12,VWS V14.01,2013-01-15 19:07:00,
2013-01-15 14:12:00,1.8,-13.0,29.59,North,0,0.0,0.0,49,0.04,,---,0.12,VWS V14.01,2013-01-15 19:12:00,
2013-01-15 14:17:00,1.0,-13.6,29.59,North,0,0.0,0.0,49,0.00,,---,0.12,VWS V14.01,2013-01-15 19:17:00,
2013-01-15 14:22:00,0.1,-14.5,29.59,North,0,0.0,0.0,49,0.00,,---,0.12,VWS V14.01,2013-01-15 19:22:00,
2013-01-15 14:27:00,-0.6,-15.1,29.59,North,0,0.0,0.0,49,0.00,,---,0.12,VWS V14.01,2013-01-15 19:27:00,
2013-01-15 14:32:00,-1.3,-15.8,29.59,North,0,0.0,0.0,49,0.00,,---,0.12,VWS V14.01,2013-01-15 19:32:00,
2013-01-15 14:37:00,-2.0,-16.5,29.59,North,0,0.0,0.0,49,0.00,,---,0.12,VWS V14.01,2013-01-15 19:37:00,
2013-01-15 14:42:00,-2.6,-17.0,29.59,North,0,0.0,0.0,49,0.00,,---,0.12,VWS V14.01,2013-01-15 19:42:00,
2013-01-15 14:47:00,-3.1,-17.5,29.59,North,0,0.0,0.0,49,0.00,,---,0.12,VWS V14.01,2013-01-15 19:47:00,
2013-01-15 14:52:00,-3.1,-17.5,29.59,North,0,0.0,0.0,49,0.00,,---,0.12,VWS V14.01,2013-01-15 19:52:00,
2013-01-15 14:57:00,-2.7,-17.2,29.59,North,0,0.0,0.0,49,0.00,,---,0.12,VWS V14.01,2013-01-15 19:57:00,
2013-01-15 15:02:00,-2.4,-16.8,29.59,North,0,0.0,0.0,49,0.00,,---,0.12,VWS V14.01,2013-01-15 20:02:00,
2013-01-15 15:07:00,-2.0,-16.5,29.59,North,0,0.0,0.0,49,0.00,,---,0.12,VWS V14.01,2013-01-15 20:07:00,
2013-01-15 15:13:00,-1.3,-15.8,29.59,North,0,0.0,0.0,49,0.00,,---,0.12,VWS V14.01,2013-01-15 20:13:00,
2013-01-15 15:19:00,-0.9,-15.5,29.59,North,0,0.0,0.0,49,0.00,,---,0.12,VWS V14.01,2013-01-15 20:19:00,
2013-01-15 15:24:00,-0.6,-15.1,29.59,North,0,0.0,0.0,49,0.00,,---,0.12,VWS V14.01,2013-01-15 20:24:00,
2013-01-15 15:30:00,0.0,-14.6,29.59,North,0,0.0,0.0,49,0.00,,---,0.12,VWS V14.01,2013-01-15 20:30:00,
2013-01-15 15:35:00,0.3,-14.3,29.59,North,0,0.0,0.0,49,0.00,,---,0.12,VWS V14.01,2013-01-15 20:35:00,
2013-01-15 15:40:00,0.7,-14.0,29.62,North,0,0.0,0.0,49,0.00,,---,0.12,VWS V14.01,2013-01-15 20:40:00,
2013-01-15 15:45:00,0.9,-13.8,29.62,North,0,0.0,0.0,49,0.00,,---,0.12,VWS V14.01,2013-01-15 20:45:00,
2013-01-15 15:50:00,1.2,-13.5,29.62,North,0,0.0,0.0,49,0.00,,---,0.12,VWS V14.01,2013-01-15 20:50:00,
2013-01-15 15:56:00,1.6,-13.1,29.62,North,0,0.0,0.0,49,0.00,,---,0.12,VWS V14.01,2013-01-15 20:56:00,
2013-01-15 16:01:00,1.8,-13.0,29.62,North,0,0.0,0.0,49,0.00,,---,0.12,VWS V14.01,2013-01-15 21:01:00,
2013-01-15 16:06:00,1.9,-12.8,29.62,North,0,0.0,0.0,49,0.00,,---,0.12,VWS V14.01,2013-01-15 21:06:00,
2013-01-15 16:11:00,2.3,-12.5,29.62,North,0,0.0,0.0,49,0.00,,---,0.12,VWS V14.01,2013-01-15 21:11:00,
2013-01-15 16:16:00,2.5,-12.3,29.62,North,0,0.0,0.0,49,0.00,,---,0.12,VWS V14.01,2013-01-15 21:16:00,
2013-01-15 16:21:00,2.8,-12.0,29.62,North,0,0.0,0.0,49,0.00,,---,0.12,VWS V14.01,2013-01-15 21:21:00,
2013-01-15 16:26:00,3.0,-11.8,29.59,North,0,0.0,0.0,49,0.00,,---,0.12,VWS V14.01,2013-01-15 21:26:00,
2013-01-15 16:31:00,3.2,-11.6,29.59,North,0,0.0,0.0,49,0.00,,---,0.12,VWS V14.01,2013-01-15 21:31:00,
2013-01-15 16:36:00,3.4,-11.5,29.59,North,0,0.0,0.0,49,0.00,,---,0.12,VWS V14.01,2013-01-15 21:36:00,
2013-01-15 16:42:00,3.7,-11.1,29.62,North,0,0.0,0.0,49,0.00,,---,0.12,VWS V14.01,2013-01-15 21:42:00,
2013-01-15 16:47:00,3.9,-11.0,29.62,North,0,0.0,0.0,49,0.00,,---,0.12,VWS V14.01,2013-01-15 21:47:00,
2013-01-15 16:52:00,4.1,-10.8,29.59,North,0,0.0,0.0,49,0.00,,---,0.12,VWS V14.01,2013-01-15 21:52:00,
2013-01-15 16:57:00,4.3,-10.6,29.59,North,0,0.0,0.0,49,0.00,,---,0.12,VWS V14.01,2013-01-15 21:57:00,
2013-01-15 17:02:00,4.5,-10.5,29.59,North,0,0.0,0.0,49,0.00,,---,0.12,VWS V14.01,2013-01-15 22:02:00,
2013-01-15 17:07:00,4.6,-10.3,29.62,North,0,0.0,0.0,49,0.00,,---,0.12,VWS V14.01,2013-01-15 22:07:00,
2013-01-15 17:12:00,5.0,-10.0,29.62,North,0,0.0,0.0,49,0.00,,---,0.12,VWS V14.01,2013-01-15 22:12:00,
2013-01-15 17:17:00,5.0,-10.0,29.62,North,0,0.0,0.0,49,0.00,,---,0.12,VWS V14.01,2013-01-15 22:17:00,
2013-01-15 17:22:00,5.4,-9.6,29.62,North,0,0.0,0.0,49,0.00,,---,0.12,VWS V14.01,2013-01-15 22:22:00,
2013-01-15 17:28:00,5.5,-9.5,29.62,North,0,0.0,0.0,49,0.00,,---,0.12,VWS V14.01,2013-01-15 22:28:00,
2013-01-15 17:33:00,5.5,-9.5,29.62,North,0,0.0,0.0,49,0.00,,---,0.12,VWS V14.01,2013-01-15 22:33:00,
2013-01-15 17:38:00,5.7,-9.3,29.62,North,0,0.0,0.0,49,0.00,,---,0.12,VWS V14.01,2013-01-15 22:38:00,
2013-01-15 17:43:00,6.1,-9.0,29.59,North,0,0.0,0.0,49,0.00,,---,0.12,VWS V14.01,2013-01-15 22:43:00,
2013-01-15 17:48:00,6.1,-9.0,29.59,North,0,0.0,0.0,49,0.00,,---,0.12,VWS V14.01,2013-01-15 22:48:00,
2013-01-15 17:54:00,6.3,-8.8,29.59,North,0,0.0,0.0,49,0.00,,---,0.12,VWS V14.01,2013-01-15 22:54:00,
2013-01-15 17:59:00,6.4,-8.6,29.59,North,0,0.0,0.0,49,0.00,,---,0.12,VWS V14.01,2013-01-15 22:59:00,
2013-01-15 18:04:00,6.6,-8.5,29.59,North,0,0.0,0.0,49,0.00,,---,0.12,VWS V14.01,2013-01-15 23:04:00,
2013-01-15 18:09:00,6.8,-8.3,29.59,North,0,0.0,0.0,49,0.00,,---,0.12,VWS V14.01,2013-01-15 23:09:00,
2013-01-15 18:14:00,6.8,-8.3,29.59,North,0,0.0,0.0,49,0.00,,---,0.12,VWS V14.01,2013-01-15 23:14:00,
2013-01-15 18:19:00,7.0,-8.1,29.59,North,0,0.0,0.0,49,0.00,,---,0.12,VWS V14.01,2013-01-15 23:19:00,
2013-01-15 18:24:00,7.2,-8.0,29.59,North,0,0.0,0.0,49,0.00,,---,0.12,VWS V14.01,2013-01-15 23:24:00,
2013-01-15 18:29:00,7.3,-7.8,29.59,North,0,0.0,0.0,49,0.00,,---,0.12,VWS V14.01,2013-01-15 23:29:00,
2013-01-15 18:34:00,7.5,-7.6,29.59,North,0,0.0,0.0,49,0.00,,---,0.12,VWS V14.01,2013-01-15 23:34:00,
2013-01-15 18:40:00,7.2,-8.0,29.59,North,0,0.0,0.0,49,0.00,,---,0.12,VWS V14.01,2013-01-15 23:40:00,
2013-01-15 18:45:00,6.3,-8.8,29.59,North,0,0.0,0.0,49,0.00,,---,0.12,VWS V14.01,2013-01-15 23:45:00,
2013-01-15 18:50:00,5.4,-9.6,29.59,North,0,0.0,0.0,49,0.00,,---,0.12,VWS V14.01,2013-01-15 23:50:00,
2013-01-15 18:55:00,4.5,-10.5,29.62,North,0,0.0,0.0,49,0.00,,---,0.12,VWS V14.01,2013-01-15 23:55:00,
2013-01-15 19:01:00,3.0,-11.8,29.62,North,0,0.0,0.0,49,0.00,,---,0.12,VWS V14.01,2013-01-16 00:01:00,
2013-01-15 19:06:00,2.1,-12.6,29.62,North,0,0.0,0.0,49,0.00,,---,0.12,VWS V14.01,2013-01-16 00:06:00,
2013-01-15 19:11:00,1.4,-13.3,29.59,North,0,0.0,0.0,49,0.00,,---,0.12,VWS V14.01,2013-01-16 00:11:00,
2013-01-15 19:16:00,1.0,-13.6,29.59,North,0,0.0,0.0,49,0.00,,---,0.12,VWS V14.01,2013-01-16 00:16:00,
2013-01-15 19:21:00,0.3,-14.3,29.59,North,0,0.0,0.0,49,0.00,,---,0.12,VWS V14.01,2013-01-16 00:21:00,
2013-01-15 19:26:00,0.0,-14.6,29.62,North,0,0.0,0.0,49,0.00,,---,0.12,VWS V14.01,2013-01-16 00:26:00,
2013-01-15 19:31:00,-0.6,-15.1,29.62,North,0,0.0,0.0,49,0.00,,---,0.12,VWS V14.01,2013-01-16 00:31:00,
2013-01-15 19:36:00,-1.1,-15.6,29.62,North,0,0.0,0.0,49,0.00,,---,0.12,VWS V14.01,2013-01-16 00:36:00,
2013-01-15 19:41:00,-1.7,-16.2,29.62,North,0,0.0,0.0,49,0.00,,---,0.12,VWS V14.01,2013-01-16 00:41:00,
2013-01-15 19:46:00,-1.8,-16.3,29.62,North,0,0.0,0.0,49,0.00,,---,0.12,VWS V14.01,2013-01-16 00:46:00,
2013-01-15 19:51:00,-2.2,-16.7,29.62,North,0,0.0,0.0,49,0.00,,---,0.12,VWS V14.01,2013-01-16 00:51:00,
2013-01-15 19:56:00,-2.6,-17.0,29.59,North,0,0.0,0.0,49,0.00,,---,0.12,VWS V14.01,2013-01-16 00:56:00,
2013-01-15 20:01:00,-3.1,-17.5,29.59,North,0,0.0,0.0,49,0.00,,---,0.12,VWS V14.01,2013-01-16 01:01:00,
2013-01-15 20:06:00,-3.3,-17.7,29.59,North,0,0.0,0.0,49,0.00,,---,0.12,VWS V14.01,2013-01-16 01:06:00,
2013-01-15 20:12:00,-3.5,-17.8,29.59,North,0,0.0,0.0,49,0.00,,---,0.12,VWS V14.01,2013-01-16 01:12:00,
2013-01-15 20:17:00,-3.8,-18.2,29.59,North,0,0.0,0.0,49,0.00,,---,0.12,VWS V14.01,2013-01-16 01:17:00,
2013-01-15 20:22:00,-4.2,-18.5,29.59,North,0,0.0,0.0,49,0.00,,---,0.12,VWS V14.01,2013-01-16 01:22:00,
2013-01-15 20:27:00,-4.4,-18.7,29.59,North,0,0.0,0.0,49,0.00,,---,0.12,VWS V14.01,2013-01-16 01:27:00,
2013-01-15 20:32:00,-4.5,-18.8,29.59,North,0,0.0,0.0,49,0.00,,---,0.12,VWS V14.01,2013-01-16 01:32:00,
2013-01-15 20:37:00,-4.7,-19.0,29.59,North,0,0.0,0.0,49,0.00,,---,0.12,VWS V14.01,2013-01-16 01:37:00,
2013-01-15 20:42:00,-4.7,-19.0,29.59,North,0,0.0,0.0,49,0.00,,---,0.12,VWS V14.01,2013-01-16 01:42:00,
2013-01-15 20:48:00,-4.4,-18.7,29.59,North,0,0.0,0.0,49,0.00,,---,0.12,VWS V14.01,2013-01-16 01:48:00,
2013-01-15 20:53:00,-3.8,-18.2,29.59,North,0,0.0,0.0,49,0.00,,---,0.12,VWS V14.01,2013-01-16 01:53:00,
2013-01-15 20:58:00,-3.5,-17.8,29.59,North,0,0.0,0.0,49,0.00,,---,0.12,VWS V14.01,2013-01-16 01:58:00,
2013-01-15 21:03:00,-2.9,-17.3,29.59,North,0,0.0,0.0,49,0.00,,---,0.12,VWS V14.01,2013-01-16 02:03:00,
2013-01-15 21:09:00,-2.4,-16.8,29.59,North,0,0.0,0.0,49,0.00,,---,0.12,VWS V14.01,2013-01-16 02:09:00,
2013-01-15 21:14:00,-1.1,-15.6,29.59,North,0,0.0,0.0,49,0.00,,---,0.12,VWS V14.01,2013-01-16 02:14:00,
2013-01-15 21:19:00,1.6,-13.1,29.59,North,0,0.0,0.0,49,0.00,,---,0.12,VWS V14.01,2013-01-16 02:19:00,
2013-01-15 21:24:00,2.8,-12.0,29.59,North,0,0.0,0.0,49,0.00,,---,0.12,VWS V14.01,2013-01-16 02:24:00,
2013-01-15 21:29:00,3.2,-11.6,29.59,North,0,0.0,0.0,49,0.00,,---,0.12,VWS V14.01,2013-01-16 02:29:00,
2013-01-15 21:34:00,4.1,-10.8,29.59,North,0,0.0,0.0,49,0.00,,---,0.12,VWS V14.01,2013-01-16 02:34:00,
2013-01-15 21:39:00,4.1,-10.8,29.56,North,0,0.0,0.0,49,0.00,,---,0.12,VWS V14.01,2013-01-16 02:39:00,
2013-01-15 21:44:00,4.1,-10.8,29.56,North,0,0.0,0.0,49,0.00,,---,0.12,VWS V14.01,2013-01-16 02:44:00,
2013-01-15 21:49:00,3.7,-11.1,29.56,North,0,0.0,0.0,49,0.00,,---,0.12,VWS V14.01,2013-01-16 02:49:00,
2013-01-15 21:54:00,3.7,-11.1,29.56,North,0,0.0,0.0,49,0.00,,---,0.12,VWS V14.01,2013-01-16 02:54:00,
2013-01-15 21:59:00,3.2,-11.6,29.56,North,0,0.0,0.0,49,0.00,,---,0.12,VWS V14.01,2013-01-16 02:59:00,
2013-01-15 22:04:00,3.0,-11.8,29.56,North,0,0.0,0.0,49,0.00,,---,0.12,VWS V14.01,2013-01-16 03:04:00,
2013-01-15 22:09:00,2.8,-12.0,29.56,North,0,0.0,0.0,49,0.00,,---,0.12,VWS V14.01,2013-01-16 03:09:00,
2013-01-15 22:14:00,2.7,-12.1,29.56,North,0,0.0,0.0,49,0.00,,---,0.12,VWS V14.01,2013-01-16 03:14:00,
2013-01-15 22:19:00,2.5,-12.3,29.56,North,0,0.0,0.0,49,0.00,,---,0.12,VWS V14.01,2013-01-16 03:19:00,
2013-01-15 22:24:00,2.3,-12.5,29.56,North,0,0.0,0.0,49,0.00,,---,0.12,VWS V14.01,2013-01-16 03:24:00,
2013-01-15 22:29:00,1.9,-12.8,29.56,North,0,0.0,0.0,49,0.00,,---,0.12,VWS V14.01,2013-01-16 03:29:00,
2013-01-15 22:34:00,1.6,-13.1,29.56,North,0,0.0,0.0,49,0.00,,---,0.12,VWS V14.01,2013-01-16 03:34:00,
2013-01-15 22:39:00,1.4,-13.3,29.56,North,0,0.0,0.0,49,0.00,,---,0.12,VWS V14.01,2013-01-16 03:39:00,
2013-01-15 22:44:00,1.2,-13.5,29.56,North,0,0.0,0.0,49,0.00,,---,0.12,VWS V14.01,2013-01-16 03:44:00,
2013-01-15 22:50:00,0.7,-14.0,29.56,North,0,0.0,0.0,49,0.00,,---,0.12,VWS V14.01,2013-01-16 03:50:00,
2013-01-15 22:55:00,0.5,-14.1,29.56,North,0,0.0,0.0,49,0.00,,---,0.12,VWS V14.01,2013-01-16 03:55:00,
2013-01-15 23:00:00,0.3,-14.3,29.56,North,0,0.0,0.0,49,0.00,,---,0.12,VWS V14.01,2013-01-16 04:00:00,
2013-01-15 23:05:00,0.0,-14.6,29.56,North,0,0.0,0.0,49,0.00,,---,0.12,VWS V14.01,2013-01-16 04:05:00,
2013-01-15 23:10:00,-0.2,-14.8,29.56,North,0,0.0,0.0,49,0.00,,---,0.12,VWS V14.01,2013-01-16 04:10:00,
2013-01-15 23:15:00,-0.6,-15.1,29.56,North,0,0.0,0.0,49,0.00,,---,0.12,VWS V14.01,2013-01-16 04:15:00,
2013-01-15 23:20:00,-0.6,-15.1,29.56,North,0,0.0,0.0,49,0.00,,---,0.12,VWS V14.01,2013-01-16 04:20:00,
2013-01-15 23:25:00,-0.8,-15.3,29.56,North,0,0.0,0.0,49,0.00,,---,0.12,VWS V14.01,2013-01-16 04:25:00,
2013-01-15 23:32:00,-0.8,-15.3,29.56,North,0,0.0,0.0,49,0.00,,---,0.12,VWS V14.01,2013-01-16 04:32:00,
2013-01-15 23:37:00,-1.3,-15.8,29.56,North,0,0.0,0.0,49,0.00,,---,0.12,VWS V14.01,2013-01-16 04:37:00,
2013-01-15 23:43:00,-1.7,-16.2,29.56,North,0,0.0,0.0,49,0.00,,---,0.12,VWS V14.01,2013-01-16 04:43:00,
2013-01-15 23:48:00,-1.8,-16.3,29.56,North,0,0.0,0.0,49,0.00,,---,0.12,VWS V14.01,2013-01-16 04:48:00,
2013-01-15 23:53:00,-2.2,-16.7,29.56,North,0,0.0,0.0,49,0.00,,---,0.12,VWS V14.01,2013-01-16 04:53:00,
2013-01-15 23:58:00,-2.2,-16.7,29.56,North,0,0.0,0.0,49,0.00,,---,0.12,VWS V14.01,2013-01-16 04:58:00,